Regional Weather Roundup
Issued by NWS Charleston, SC

Current Version | Previous Version | Graphics & Text | Print | Product List | Glossary On
Versions: 1 2 3 4 5 6 7 8 9 10 11 12 13 14 15 16 17 18 19 20 21 22 23 24 25 26 27 28 29 30 31 32 33 34 35 36 37 38 39 40 41 42 43 44 45 46 47 48 49 50
000
ASUS42 KCHS 310212
RWRCHS

REGIONAL WEATHER ROUNDUP
NATIONAL WEATHER SERVICE CHARLESTON SC
1000 PM EDT SUN AUG 30 2015

NOTE: "FAIR" INDICATES FEW OR NO CLOUDS BELOW 12,000 FEET WITH NO
SIGNIFICANT WEATHER AND/OR OBSTRUCTIONS TO VISIBILITY.

NOT ALL STATIONS ARE QUALITY CONTROLLED BY THE NATIONAL
WEATHER SERVICE. USE DATA WITH CAUTION...ESPECIALLY
DEWPOINT OBSERVATIONS.

SCZ027-030-031-034>040-042>050-310300-
...SOUTHEAST SOUTH CAROLINA...

CITY           SKY/WX    TMP DP  RH WIND       PRES   REMARKS
N CHARLESTON   CLOUDY    75  73  93 E7        30.08S
WATERFRONT PRK   N/A     79  76  91 SE18      30.06S
MOUNT PLEASANT LGT RAIN  77  75  94 SE9G17    30.08F
JOHNS ISLAND   MOCLDY    77  75  94 E12       30.08S
PINOPOLIS        N/A     75  72  88 E6        30.02F
MONCKS CORNER  FAIR      73  70  88 CALM      30.09F
SUMMERVILLE    MOCLDY    73  73 100 CALM      30.10S
BEAUFORT MCAS  RAIN      77  75  93 SE8       30.05S
BEAUFORT ARPT  CLOUDY    77  75  94 CALM      30.05S
HILTON HEAD IS CLOUDY    77  75  94 E6        30.06S
WALTERBORO     RAIN      75  73  94 NE3       30.09S
ALLENDALE      LGT RAIN  73  73 100 VRB5      30.08S

...SOUTHERN MIDLANDS AND PEE DEE...

CITY           SKY/WX    TMP DP  RH WIND       PRES   REMARKS
GEORGETOWN     NOT AVBL
KINGSTREE      NOT AVBL
ORANGEBURG     LGT RAIN  74  71  91 CALM      30.11S FOG
BARNWELL       DRIZZLE   75  73  94 NE3       30.11S
AIKEN          NOT AVBL
MANNING        CLOUDY    72  72 100 CALM      30.11S
COLUMBIA       HVY RAIN  73  70  90 W6        30.12S FOG
SUMTER         LGT RAIN  72  70  94 NE5       30.11S
FLORENCE       CLOUDY    72  69  90 CALM      30.13R
MYRTLE BEACH   NOT AVBL
N MYRTLE BEACH CLOUDY    73  71  93 NE5       30.11F

$$

GAZ063-065-086>088-099>101-113>116-118-119-134>141-150-310300-
...SOUTHEAST GEORGIA...

CITY           SKY/WX    TMP DP  RH WIND       PRES   REMARKS
SAVANNAH ARPT  HVY RAIN  75  73  93 SE7       30.06S FOG
HUNTER AAF     CLOUDY    75  75 100 SE2       30.02F
FORT STEWART   DRIZZLE   75  73  94 CALM      30.02S
STATESBORO     DRIZZLE   74  32  21 CALM      30.07S
SYLVANIA       CLOUDY    75  75 100 NE5       30.08F
CLAXTON        NOT AVBL

...CSRA...CENTRAL AND FAR SOUTHEAST GEORGIA...

CITY           SKY/WX    TMP DP  RH WIND       PRES   REMARKS
THOMSON        MOCLDY    71  71 100 E3        30.16R
AUGUSTA-BUSH   CLOUDY    70  69  97 NE5       30.08F
AUGUSTA-DANIEL CLOUDY    72  68  87 N6        30.11F
SWAINSBORO     CLOUDY   N/A N/A N/A NE7       30.09R
VIDALIA        MOCLDY    73  72  94 NE6       30.06S
EASTMAN        FAIR      74  74 100 NE5       30.09R
HAZLEHURST     MOCLDY    77  77  99 NE3       30.05R
ALMA           PTCLDY    75  73  93 CALM      30.03S
WAYCROSS       CLOUDY    79  78  96 CALM      30.04R
JESUP          MOCLDY    79  77  94 CALM      30.04R
BAXLEY         MOCLDY    77  75  94 NE3       30.04S
BRUNSWICK      CLOUDY    79  77  94 S5        30.05R
SAINT SIMONS   CLOUDY    78  74  87 S9        30.04R

$$

SCZ027-028-034-036>038-045-046-048>050-GAZ119-141-310300-
...LAKE AND SUPPLEMENTAL COASTAL OBSERVATIONS...

STATION/POSITION TIME  TEMP    WIND        PRES    WAVE   SWELL
                       AIR SEA DIR/SP/G            HT/PER HT/PER/DIR
                 (UTC) (F)     (DEG/KT/KT) (MB)    (FT/S) (FT/S/D)
UPR LAKE MARION  NOT AVBL
WINYAH BAY       NOT AVBL
LAKE MURRAY      0100   71      50/  5/  9 1019.0S
ACE BASIN NERRS  NOT AVBL
FORT PULASKI     NOT AVBL
SAPELO ISLAND    0100   78     140/  7     1017.0S

$$

ANZ835-935-AMZ111-154-330-350-352-354-370-450-454-472-310300-
...C-MAN AND BUOY OBSERVATIONS...

STATION/POSITION TIME  TEMP    WIND        PRES    WAVE   SWELL
                       AIR SEA DIR/SP/G            HT/PER HT/PER/DIR
                 (UTC) (F)     (DEG/KT/KT) (MB)    (FT/S) (FT/S/D)
BUOY 41004       0150   79 85  100/ 17/ 19 1018.4F   5/10   5/10
BUOY 41008       0150   80 84  150/ 14/ 17 1017.0R   5/10   3/ 90/10
FOLLY BEACH CMAN 0100   79     110/ 19/ 22 1018.6F
CAPERS NEARSHORE 0108   79     130/ 17/ 23 1018.8F
FRIPP NEARSHORE  0100   80     140/ 17/ 21 1016.9F


STATION/POSITION TIME  TEMP    WIND        PRES    WAVE   SWELL
                       AIR SEA DIR/SP/G            HT/PER HT/PER/DIR
                 (UTC) (F)     (DEG/KT/KT) (MB)    (FT/S) (FT/S/D)
5E ST. MARYS GA  0121      85                N/A     5/10   2/100/11
FRYING PAN BUOY  0150   79 82  120/  8/ 10 1020.9S   3/11   3/140/11
BUOY 41025       0150   79 81  280/  2/  4 1020.9R   3/11   3/140/11
CAPE LOOKOUT NC  0100   78     250/  3/  3 1020.5R
BUOY 41002       0150   84 84  170/  8/ 12 1020.9R   4/ 9   3/140/ 9
BUOY 41010       0120   85 86  150/ 14/ 16 1018.1R
ST AUGUSTINE FL  0200   79 84  110/ 19/ 21 1017.1S


$$


USA.gov is the U.S. government's official web portal to all federal, state and local government web resources and services.